GFSGL_850_spd_336.txt.gz
Wind_Speed
12 12 11 10 10 10 11 10 9 9 7 5 5 6 10 12 10 12 13 14 13 12 14 12 10 8 14 15 11 11 12 13 17 18 16 13 10 10 11 10 7 5 3
13 12 11 11 11 11 10 10 10 9 9 8 7 6 8 11 12 11 12 13 13 13 13 14 14 11 12 11 11 11 12 12 17 19 19 16 12 11 12 10 8 6 4
15 13 12 12 12 12 12 11 11 10 10 9 9 8 8 9 12 13 12 13 13 15 14 14 16 16 11 13 12 12 12 13 15 17 17 16 14 13 14 13 11 8 5
17 16 15 15 15 15 14 13 13 11 11 10 9 9 9 9 10 12 14 13 13 14 15 14 16 16 14 12 13 13 12 13 14 15 16 16 15 15 16 15 13 10 7
17 18 17 16 16 16 16 15 14 13 12 12 11 10 9 9 10 10 12 14 14 13 13 14 16 16 14 12 11 13 13 13 13 15 16 15 16 16 19 17 16 12 10
19 20 20 19 17 16 16 15 13 12 12 12 11 12 11 10 9 10 11 12 13 14 13 13 15 17 16 14 9 15 14 13 12 14 15 14 13 15 17 17 16 13 11
20 20 21 22 21 18 16 15 13 12 12 13 13 13 12 12 11 10 11 12 12 13 13 13 15 17 17 16 14 14 17 14 13 13 14 11 9 9 13 15 15 11 10
22 21 21 22 23 22 19 16 15 15 13 12 13 14 14 15 14 13 13 11 11 11 13 13 14 16 16 16 15 15 15 15 13 13 12 11 7 8 10 11 11 10 8
22 21 20 21 21 21 23 18 16 15 15 14 13 13 13 14 16 16 14 13 12 10 11 13 13 16 17 16 13 12 15 15 15 14 12 12 11 9 10 10 11 10 9
22 22 21 22 22 21 22 22 18 16 15 15 14 14 14 14 15 16 17 14 12 10 9 11 13 15 18 19 16 15 14 14 14 13 13 14 13 11 10 10 10 9 8
26 26 25 24 24 22 20 24 22 20 18 17 16 15 14 14 14 15 17 17 16 12 8 9 11 14 17 19 17 16 14 14 13 14 12 13 13 12 12 11 10 9 7
30 30 29 28 27 25 22 24 25 24 23 21 20 17 15 14 13 14 15 16 17 16 12 9 11 13 16 19 19 17 17 15 15 14 15 15 14 14 13 12 11 10 7
29 30 32 32 30 28 25 25 28 27 27 25 24 21 17 15 14 14 14 15 16 16 14 9 12 11 14 19 20 17 19 18 15 15 16 16 15 14 14 13 13 11 9
31 30 30 33 34 32 30 27 28 31 31 30 28 26 22 19 15 15 15 15 14 14 15 11 11 11 11 16 20 19 21 20 16 15 16 17 16 16 15 14 13 11 10
34 33 32 31 32 33 32 32 30 31 31 33 32 29 27 25 18 17 15 15 16 16 16 14 10 11 12 15 20 22 22 21 19 17 18 17 17 18 16 15 14 12 11
38 37 35 33 33 33 32 34 33 33 31 31 32 33 32 29 23 19 17 16 16 16 18 17 13 13 12 16 20 24 25 23 21 19 20 17 18 19 18 17 15 13 11
38 38 38 36 34 34 34 33 35 34 32 32 32 33 34 33 28 24 20 18 18 19 19 18 18 16 18 15 20 24 27 26 22 22 21 19 18 20 20 18 16 14 13
35 36 37 38 37 35 34 34 33 31 32 35 32 33 34 33 32 28 24 22 21 22 22 20 19 19 20 21 19 22 26 26 26 27 23 22 21 22 22 20 18 15 14
31 33 33 34 35 35 33 33 34 34 36 36 36 35 34 34 32 31 28 28 25 23 23 24 21 19 20 23 23 21 24 26 27 29 27 24 24 23 24 22 19 16 15
28 29 29 30 32 33 33 33 34 35 36 37 38 39 37 34 35 34 32 30 28 27 25 25 25 22 21 22 25 25 24 25 27 30 30 26 25 26 26 25 22 19 17
27 27 26 27 29 30 31 31 32 35 37 38 39 37 35 33 37 38 37 35 33 31 29 28 26 25 22 23 25 29 26 27 27 30 32 29 26 28 27 26 24 21 19
25 27 26 27 26 28 29 29 31 33 35 37 38 36 33 32 34 35 37 38 38 34 31 30 29 28 26 25 25 28 28 29 29 30 32 30 27 28 28 29 27 24 22
24 26 26 27 27 26 27 27 29 31 33 34 35 35 35 35 35 36 35 34 34 34 32 31 31 30 29 26 26 29 29 29 29 30 31 31 29 29 31 31 30 28 25
19 19 22 24 25 26 27 27 26 26 28 30 32 34 35 35 36 36 35 35 33 31 30 30 32 32 31 29 28 28 29 27 29 29 29 31 29 31 33 32 31 29 26
21 19 19 20 22 24 24 25 25 25 25 26 27 30 33 34 35 36 35 33 33 31 30 30 32 32 30 29 28 28 27 27 29 27 29 31 29 31 33 33 33 31 29
27 24 20 18 18 19 21 20 23 24 24 22 22 23 25 28 31 32 32 32 31 30 30 29 29 29 31 29 30 29 28 26 27 27 28 31 31 32 35 35 35 34 32

GFSGL_850_spd_339.txt.gz
Wind_Speed
14 14 14 14 14 15 16 16 15 13 10 8 4 4 8 7 6 8 9 9 8 9 9 11 12 11 11 9 8 9 10 12 14 15 16 13 12 10 11 10 7 6 5
12 12 11 12 14 15 15 16 16 16 15 12 10 7 6 7 6 7 8 10 12 11 11 10 12 13 11 8 8 9 8 11 13 16 17 17 14 12 11 10 9 7 6
14 13 12 12 13 14 15 15 15 15 16 14 12 10 8 7 8 7 8 8 10 11 13 11 11 12 13 14 13 11 8 10 11 14 16 17 16 15 12 12 10 9 6
16 17 16 13 12 13 15 15 15 14 14 14 15 13 11 9 7 7 8 9 10 10 10 12 14 12 12 13 13 11 10 11 11 13 15 15 17 15 13 13 13 12 9
14 16 19 19 17 14 13 14 14 13 13 13 13 14 13 12 10 7 7 8 10 10 11 12 13 13 10 13 12 11 10 10 11 13 15 15 16 16 16 14 16 14 12
15 15 16 18 19 18 15 12 12 12 12 13 13 13 14 13 12 11 9 7 9 10 11 12 12 13 12 14 13 12 12 10 11 13 13 14 13 14 15 16 18 17 14
18 17 18 18 18 19 19 16 12 11 11 12 12 12 13 14 13 12 11 9 8 9 11 12 12 13 13 14 13 14 14 13 11 12 13 11 11 9 12 16 16 13 13
19 19 18 18 17 17 18 18 17 13 12 12 12 12 12 12 13 14 13 12 9 8 10 12 12 13 13 14 14 14 14 13 11 11 11 10 8 7 7 10 11 12 10
19 19 19 19 19 17 16 17 19 17 14 13 12 12 12 12 11 12 14 14 13 10 9 10 12 13 14 15 15 13 12 10 11 11 11 11 9 8 7 10 12 12 9
18 19 21 21 21 21 19 18 18 22 18 15 13 12 13 12 12 11 12 14 16 13 10 9 12 13 13 15 15 13 13 9 9 9 11 10 9 8 8 8 9 10 7
21 22 23 25 25 23 22 20 18 21 22 19 17 13 13 13 12 12 11 11 13 15 12 8 10 11 12 14 14 15 12 10 9 8 9 9 9 9 9 9 9 9 8
27 28 29 28 27 26 25 22 19 19 25 26 23 18 14 13 13 12 12 11 11 13 14 12 9 9 10 12 14 13 14 13 12 10 10 9 10 11 10 9 9 8 7
30 30 30 30 29 28 27 26 24 21 21 24 27 25 20 15 14 14 12 11 11 10 12 13 7 10 10 11 14 14 16 15 14 12 11 11 11 11 11 11 10 9 8
33 32 31 31 30 29 29 27 26 25 24 23 25 28 26 20 17 15 15 13 13 12 11 11 11 9 11 10 12 15 17 15 14 12 12 12 12 12 12 12 12 10 10
35 35 35 33 32 32 31 30 28 26 25 26 26 24 26 25 22 18 17 15 14 13 13 12 11 7 10 11 10 15 17 16 16 15 13 13 12 13 13 13 12 12 11
36 36 36 36 35 33 33 34 32 30 28 27 25 26 26 26 24 23 21 18 16 15 14 13 13 11 7 10 10 11 16 18 17 16 14 13 12 13 13 14 13 13 11
32 34 35 36 36 35 33 32 35 33 31 29 28 23 26 27 25 26 24 21 19 19 17 15 13 12 11 8 10 11 15 17 19 18 17 14 13 14 15 15 14 13 12
27 29 31 33 33 33 33 32 32 33 35 34 29 28 25 26 28 28 27 24 25 23 20 18 16 13 12 11 10 12 13 16 17 21 20 18 16 15 17 17 16 14 13
25 27 27 27 27 28 29 30 31 31 33 34 33 31 27 28 24 26 25 29 29 25 23 21 19 16 14 12 11 12 14 15 16 19 22 22 20 17 18 18 17 15 14
27 25 23 24 25 26 26 27 27 29 31 34 34 32 29 27 30 27 27 29 29 28 26 24 21 20 17 14 14 12 14 16 16 18 22 23 21 20 19 19 19 17 15
26 25 24 24 24 24 25 25 26 27 28 31 33 31 26 26 29 32 35 35 33 30 27 25 23 22 21 18 16 17 15 18 19 18 21 23 22 23 20 20 20 18 17
28 26 24 24 24 24 24 24 24 25 27 29 31 31 26 26 29 31 32 34 37 35 31 28 26 25 24 22 20 19 19 19 21 20 21 23 22 23 24 22 23 22 20
28 25 24 24 24 24 24 23 24 25 25 26 27 30 30 31 31 33 35 33 31 31 31 31 31 30 28 26 26 24 21 20 21 20 21 23 23 24 26 25 25 26 23
31 30 27 24 22 23 25 25 23 23 23 23 24 26 29 30 32 33 33 33 32 30 28 29 31 32 31 30 29 28 23 19 21 22 20 21 22 24 27 27 27 26 25
32 32 31 29 25 23 21 21 22 23 23 23 22 22 24 27 30 32 31 31 31 31 29 28 29 31 33 32 31 30 25 21 23 24 21 20 21 23 27 28 28 29 27
29 30 32 32 30 27 24 21 20 22 23 21 20 20 20 20 23 27 29 30 30 31 30 29 29 30 31 32 31 30 26 23 23 24 22 22 22 24 27 29 30 31 30

GFSGL_850_spd_342.txt.gz
Wind_Speed
19 17 15 16 17 17 17 18 18 16 14 13 10 4 3 9 8 7 8 9 9 9 9 9 11 13 13 11 10 8 8 10 12 13 14 12 12 11 10 9 9 8 7
10 11 12 12 13 14 16 17 17 17 16 14 13 11 7 8 8 8 10 10 12 11 9 9 10 13 13 13 12 8 8 9 10 12 14 14 14 14 11 9 9 9 8
13 13 13 12 12 13 14 15 16 17 17 16 15 13 12 10 8 8 10 10 11 11 12 12 11 12 13 15 13 11 12 11 12 10 13 14 14 14 13 10 11 10 8
14 15 17 17 15 14 14 14 15 15 15 17 17 16 14 12 10 8 9 10 11 12 13 14 14 13 11 13 13 13 13 13 11 11 12 14 14 13 13 13 12 11 10
14 16 18 19 19 16 14 14 13 13 14 15 15 16 15 14 12 10 9 9 10 11 13 13 14 13 13 13 12 10 11 12 10 10 12 13 13 13 14 12 13 13 13
14 16 17 18 18 18 17 15 14 12 11 13 13 14 14 13 14 12 10 8 10 12 12 13 13 13 14 14 15 11 12 12 12 11 11 10 11 11 12 12 13 16 13
12 14 16 18 19 19 17 16 15 14 12 10 12 12 13 14 13 13 13 11 9 10 12 13 13 13 14 15 13 12 14 13 12 11 11 9 9 8 9 11 13 14 14
16 15 15 16 17 18 18 17 17 16 16 12 10 12 12 12 13 13 12 13 13 10 10 12 12 13 13 14 14 13 12 11 12 11 9 8 8 8 7 8 10 11 11
19 17 17 18 18 19 20 18 17 16 17 18 14 11 11 12 12 13 13 13 13 12 10 8 11 13 12 14 14 13 12 11 10 10 9 8 8 8 7 6 11 11 10
23 22 20 20 20 21 21 21 20 19 17 20 20 15 12 11 12 12 13 13 13 12 11 8 8 10 13 14 14 14 13 10 9 8 8 7 6 6 6 5 7 8 7
23 25 25 25 25 24 26 24 23 22 20 18 22 21 16 13 11 12 12 13 13 12 12 10 8 7 12 14 13 13 13 10 10 8 7 7 5 6 7 6 7 7 7
27 27 28 28 29 29 29 28 26 25 25 22 20 24 22 17 15 12 12 13 13 13 13 12 10 6 9 11 13 13 14 13 11 10 9 7 6 5 6 8 9 8 8
29 30 28 29 29 28 29 28 28 26 25 26 25 23 23 21 19 16 13 13 13 14 13 13 11 8 8 9 10 13 15 13 12 11 9 7 6 7 7 8 9 9 8
31 31 31 30 31 30 28 28 28 27 26 26 28 27 25 24 22 20 17 15 14 15 14 12 11 10 8 9 9 12 14 12 10 9 9 9 8 8 8 9 10 10 9
29 31 32 33 33 33 32 30 29 27 26 25 26 27 28 28 22 22 22 19 16 15 15 13 11 9 9 9 9 10 12 12 12 11 11 11 9 9 10 10 11 11 10
29 29 29 30 31 32 34 35 30 30 29 29 27 27 29 30 27 23 23 23 21 18 16 14 12 10 9 7 10 9 9 11 12 12 11 11 9 8 10 11 11 10 9
25 27 28 28 29 29 30 31 35 32 30 31 30 29 29 28 28 27 23 25 24 23 21 16 14 10 9 9 7 11 10 8 9 12 13 12 10 9 10 11 11 10 10
23 23 24 24 24 25 26 27 28 30 33 31 28 28 29 30 29 27 25 24 29 28 25 20 16 13 11 10 9 8 11 10 10 10 13 13 12 11 11 11 11 11 11
25 23 22 22 22 22 23 24 25 26 28 31 31 29 26 30 32 31 30 31 30 34 30 24 19 16 14 11 10 10 9 11 11 11 11 14 14 14 12 12 12 12 12
27 26 24 23 23 23 23 23 24 24 25 27 28 28 27 25 29 35 32 32 32 32 31 28 24 21 18 14 12 13 13 13 12 13 12 13 14 15 15 14 14 14 13
29 28 26 25 24 23 23 23 23 24 25 26 25 25 24 23 26 29 38 35 34 31 31 30 28 26 22 19 16 16 16 15 14 13 14 13 14 16 16 15 15 15 14
28 28 28 27 26 25 23 23 24 25 25 25 24 23 22 25 29 31 32 37 40 36 33 30 30 29 27 24 21 19 19 18 17 16 16 15 14 15 16 17 17 17 17
25 27 28 28 28 28 27 26 25 25 25 24 23 22 21 24 28 30 34 34 34 35 35 36 34 32 30 28 25 24 23 20 17 18 16 16 15 15 17 18 19 20 21
23 25 26 28 29 29 29 28 25 24 24 24 23 22 21 22 25 28 31 34 34 34 32 32 34 35 34 33 30 28 27 23 19 18 17 15 14 15 16 18 20 21 21
22 23 25 26 28 29 30 30 28 25 22 23 24 22 20 20 22 24 27 29 31 32 32 32 33 34 36 36 35 33 31 28 22 20 18 17 15 15 16 18 21 23 24
22 23 23 25 26 28 29 31 31 28 25 21 20 22 24 21 20 21 22 24 28 30 31 32 32 32 32 35 36 36 33 31 25 22 20 19 18 17 18 19 21 24 26

GFSGL_850_spd_345.txt.gz
Wind_Speed
18 17 15 16 18 19 18 18 18 17 14 15 14 10 7 9 8 10 11 8 11 11 12 12 12 12 11 9 9 10 9 8 10 13 13 12 11 11 10 10 9 9 9
20 18 16 16 17 18 17 16 17 17 16 16 15 14 13 10 8 8 11 14 10 10 8 8 8 9 11 13 13 14 10 10 10 11 12 13 12 12 12 11 9 9 10
15 21 19 18 17 16 15 15 14 14 15 15 15 14 13 13 11 9 8 11 13 10 10 11 9 8 9 11 14 12 11 9 11 13 14 14 12 13 12 11 10 9 10
12 13 15 17 17 17 16 14 13 12 12 13 13 14 14 14 13 12 10 9 10 11 11 11 10 10 10 9 10 12 12 12 12 11 11 13 14 12 13 12 11 10 11
11 12 13 15 16 16 15 14 13 12 11 11 11 12 13 14 14 14 13 11 9 9 11 11 11 12 12 12 10 9 10 11 10 10 10 13 14 12 13 11 11 12 14
14 15 15 15 16 17 16 16 15 13 11 10 9 10 11 12 14 14 15 14 12 10 8 9 11 12 12 12 11 10 11 10 10 10 10 11 11 11 11 11 12 13 12
20 19 19 19 18 17 17 17 16 15 13 13 11 10 10 10 12 12 13 15 15 13 11 8 8 10 11 12 13 12 13 12 10 11 9 9 10 10 10 11 12 12 13
22 23 23 23 23 21 19 18 17 17 16 14 13 12 11 11 11 12 12 13 15 15 14 11 7 6 8 10 12 12 13 10 9 9 9 9 10 10 9 10 9 10 11
25 25 25 26 27 26 24 22 20 20 19 17 15 16 13 10 11 11 12 12 13 14 15 13 8 6 8 9 10 12 12 10 9 8 9 8 8 9 8 8 7 8 9
28 28 27 27 27 28 27 25 24 24 22 21 19 16 17 14 11 10 11 12 13 14 14 15 13 6 6 9 9 10 12 10 8 8 7 7 6 6 5 5 5 6 7
29 28 29 29 29 28 28 27 27 27 27 24 23 20 17 17 14 11 11 11 12 13 14 14 14 11 5 7 9 9 9 10 9 8 7 6 6 4 4 4 5 6 6
28 29 29 29 29 30 29 30 28 28 28 27 26 24 20 16 18 16 13 11 11 11 13 14 14 12 8 6 9 8 10 10 11 9 8 5 6 4 3 5 5 5 5
24 26 28 29 29 30 30 29 29 27 26 26 26 26 23 20 15 18 17 14 12 11 11 12 13 12 12 8 7 9 10 9 10 9 6 5 6 5 5 6 5 5 5
25 25 25 27 29 30 30 30 29 28 28 26 25 25 25 24 21 15 18 19 16 12 12 11 11 12 12 11 5 9 8 7 7 6 5 6 5 6 6 6 7 5 5
26 26 26 26 26 27 27 29 29 28 27 28 27 25 26 27 23 19 16 19 20 17 16 13 10 11 11 11 6 8 7 8 9 8 7 7 6 5 5 7 7 8 6
27 27 26 26 25 25 26 27 24 27 27 27 29 28 29 28 28 24 16 19 20 21 21 17 12 9 9 10 10 8 7 8 9 8 8 7 6 6 5 5 6 7 7
24 25 26 25 25 25 25 26 29 23 23 25 27 30 32 32 29 25 18 18 20 22 26 23 17 11 7 8 9 10 8 8 9 10 9 8 6 5 6 6 7 8 7
22 23 24 24 24 23 24 25 26 28 28 24 21 25 29 33 34 32 24 22 20 24 27 28 23 16 11 8 8 9 9 8 10 11 10 10 9 7 6 5 6 7 7
23 24 25 25 25 24 23 22 23 25 26 27 26 22 23 28 32 33 34 27 25 24 30 31 28 22 17 13 10 9 10 9 8 10 11 10 9 10 8 6 6 8 8
20 22 25 26 26 27 27 26 24 24 25 26 26 24 22 23 26 29 31 30 30 19 27 31 30 27 23 18 15 13 12 11 9 9 10 10 10 10 10 9 7 7 7
21 21 23 25 26 27 27 27 27 27 26 26 26 22 21 22 23 25 27 29 32 32 22 27 29 29 28 24 20 17 15 12 12 9 8 11 9 11 10 10 10 8 9
20 21 22 24 25 27 28 28 28 29 29 28 26 23 19 21 24 26 30 31 30 33 30 28 32 30 30 28 24 22 19 15 13 13 10 9 11 9 11 11 12 11 11
22 23 23 22 24 26 27 28 29 29 29 30 27 24 22 21 22 24 26 30 32 32 33 33 36 34 31 30 27 25 23 20 15 14 12 10 12 11 11 12 13 14 13
25 24 25 24 24 25 27 28 30 30 29 29 27 25 23 23 22 22 23 26 30 32 34 37 38 37 34 32 31 29 27 24 18 15 13 11 10 10 11 12 13 15 15
27 26 26 26 25 25 27 27 29 31 31 30 28 25 23 22 23 21 21 23 26 29 32 34 38 40 41 37 35 33 30 27 23 18 15 14 12 11 10 12 14 15 17
26 26 26 26 26 25 26 27 28 30 31 29 28 26 23 21 21 22 21 20 22 25 28 31 34 36 37 38 38 36 34 32 29 23 19 16 15 15 12 13 14 16 18